Florennes, Belgium

10:01 PM CEST on April 21, 2018 (GMT +0200)
Florennes Air Base

Weather History for EBFS - July, 2013

Change the Weather History Date:

Wednesday, July 3, 2013

  Actual Average Record
Temperature  
Mean Temperature 60 °F -  
Max Temperature 64 °F 64 °F 85 °F (2015)
Min Temperature 55 °F 53 °F 44 °F (2011)
Degree Days  
Heating Degree Days 6    
Growing Degree Days 10 (Base 50)    
Moisture  
Dew Point 57 °F    
Average Humidity 91    
Maximum Humidity 100    
Minimum Humidity 68    
Precipitation  
Precipitation 0.16 in - - ()
Sea Level Pressure  
Sea Level Pressure 29.84 in    
Wind  
Wind Speed 8 mph ()    
Max Wind Speed 15 mph    
Max Gust Speed -    
Visibility 5.6 miles    
Events Rain    
Averages and records for this station are not official NWS values.
T = Trace of Precipitation, MM = Missing Value Source: Averaged Metar Reports

Daily Weather History Graph

Daily Weather History Graph

Search for Another Location

Airport or City:

Astronomy

Jul. 03, 2013 Rise Set
Actual Time 5:36 AM CEST 9:54 PM CEST
Civil Twilight 4:52 AM CEST 10:38 PM CEST
Nautical Twilight 3:47 AM CEST 11:42 PM CEST
Astronomical Twilight 2:18 AM CEST 1:13 AM CEST
Moon 2:20 AM CEST (7/3) 5:38 PM CEST (7/3)
Length of Visible Light 17h 46m
Length of Day
16h 17m
Waning Crescent, 20% of the Moon is Illuminated
Jul 3
Waning Crescent
Jul 8
New
Jul 16
First Quarter
Jul 22
Full
Jul 29
Last Quarter

Hourly Weather History & Observations

Time (CEST) Temp. Dew Point Humidity Pressure Visibility Wind Dir Wind Speed Gust Speed Precip Events Conditions
12:25 AM 66.2 °F 57.2 °F 73% 29.80 in 6.2 mi South 5.8 mph - N/A   Mostly Cloudy
12:55 AM 64.4 °F 59.0 °F 83% 29.80 in 6.2 mi South 5.8 mph - N/A   Mostly Cloudy
1:25 AM 64.4 °F 57.2 °F 77% 29.80 in 6.2 mi South 6.9 mph - N/A   Mostly Cloudy
1:55 AM 64.4 °F 57.2 °F 77% 29.77 in 6.2 mi South 8.1 mph - N/A   Mostly Cloudy
2:00 AM 65 °F 57 °F 68% 29.76 in 16 mi South 6.7 mph - -   Overcast
2:25 AM 64.4 °F 57.2 °F 77% 29.77 in 6.2 mi SSW 6.9 mph - N/A Rain Light Rain
2:55 AM 62.6 °F 59.0 °F 88% 29.77 in 6.2 mi South 8.1 mph - N/A   Mostly Cloudy
3:25 AM 62.6 °F 59.0 °F 88% 29.77 in 6.2 mi South 6.9 mph - N/A Rain Light Rain
3:55 AM 60.8 °F 60.8 °F 100% 29.77 in 5.6 mi WSW 13.8 mph - N/A Rain Light Rain
4:25 AM 60.8 °F 60.8 °F 100% 29.77 in 5.6 mi SW 11.5 mph - N/A Rain Light Rain
4:55 AM 60.8 °F 60.8 °F 100% 29.77 in 5.0 mi SW 9.2 mph - N/A Rain Light Rain
5:00 AM 61 °F 61 °F 98% 29.75 in 5 mi SW 8.9 mph - - Rain Light Rain
5:01 AM 60.8 °F 60.8 °F 100% 29.74 in 3.7 mi WSW 10.4 mph - N/A Rain Light Rain
5:25 AM 60.8 °F 60.8 °F 100% 29.74 in 5.6 mi WSW 12.7 mph - N/A Rain Light Rain
5:55 AM 59.0 °F 57.2 °F 94% 29.74 in 6.2 mi WSW 15.0 mph - N/A Rain Light Rain
6:25 AM 57.2 °F 57.2 °F 100% 29.74 in 6.2 mi WSW 5.8 mph - N/A Rain Light Rain
6:29 AM 57.2 °F 57.2 °F 100% 29.74 in 6.2 mi SW 5.8 mph - N/A Rain Light Rain
6:55 AM 59.0 °F 57.2 °F 94% 29.74 in 5.6 mi SSW 6.9 mph - N/A Rain Light Rain
7:20 AM 59.0 °F 57.2 °F 94% 29.77 in 4.3 mi SSW 8.1 mph - N/A Rain Light Rain
7:22 AM 57.2 °F 57.2 °F 100% 29.77 in 4.3 mi SSW 6.9 mph - N/A Rain Light Rain
7:25 AM 57.2 °F 57.2 °F 100% 29.77 in 4.3 mi SSW 8.1 mph - N/A Rain Light Rain
7:39 AM 57.2 °F 57.2 °F 100% 29.77 in 3.7 mi SSW 6.9 mph - N/A Rain Light Rain
7:55 AM 57.2 °F 57.2 °F 100% 29.77 in 3.1 mi SW 12.7 mph - N/A Rain Light Rain
8:00 AM 57 °F 57 °F 99% 29.76 in 3 mi SW 13.4 mph - - Rain Light Rain
8:25 AM 57.2 °F 57.2 °F 100% 29.77 in 1.6 mi WSW 9.2 mph - N/A Rain Light Rain
8:55 AM 57.2 °F 57.2 °F 100% 29.77 in 3.7 mi WSW 8.1 mph - N/A   Mostly Cloudy
9:25 AM 57.2 °F 57.2 °F 100% 29.77 in 1.6 mi WSW 8.1 mph - N/A Rain Light Rain
9:55 AM 57.2 °F 57.2 °F 100% 29.80 in 1.9 mi WSW 10.4 mph - N/A Rain Light Rain
10:25 AM 57.2 °F 57.2 °F 100% 29.80 in 4.3 mi WSW 9.2 mph - N/A Rain Light Rain
10:55 AM 57.2 °F 57.2 °F 100% 29.80 in 5.6 mi WSW 9.2 mph - N/A   Mostly Cloudy
11:00 AM 57 °F 56 °F 97% 29.80 in 6 mi WSW 8.9 mph - - Rain Light Rain
11:25 AM 59.0 °F 57.2 °F 94% 29.80 in 5.0 mi WSW 9.2 mph - N/A Rain Light Rain
11:55 AM 59.0 °F 57.2 °F 94% 29.80 in 3.7 mi WSW 9.2 mph - N/A Rain Rain
12:25 PM 59.0 °F 59.0 °F 100% 29.83 in 3.7 mi WSW 12.7 mph - N/A Rain Light Rain
12:55 PM 59.0 °F 57.2 °F 94% 29.83 in 3.1 mi WSW 11.5 mph - N/A Rain Light Rain
1:25 PM 59.0 °F 59.0 °F 100% 29.83 in 3.7 mi SW 11.5 mph - N/A   Mostly Cloudy
1:32 PM 60.8 °F 59.0 °F 94% 29.83 in 4.3 mi WSW 12.7 mph - N/A   Mostly Cloudy
1:52 PM 59.0 °F 59.0 °F 100% 29.83 in 4.3 mi SW 11.5 mph - N/A   Mostly Cloudy
1:55 PM 59.0 °F 59.0 °F 100% 29.83 in 1.9 mi WSW 11.5 mph - N/A Rain Light Rain
2:00 PM 60 °F 58 °F 93% 29.84 in 2 mi WSW 11.2 mph - - Rain Light Rain
2:25 PM 60.8 °F 59.0 °F 94% 29.86 in 6.2 mi WSW 9.2 mph - N/A   Mostly Cloudy
2:52 PM 60.8 °F 59.0 °F 94% 29.86 in 4.3 mi WSW 11.5 mph - N/A   Mostly Cloudy
2:55 PM 60.8 °F 57.2 °F 88% 29.86 in 4.3 mi WSW 10.4 mph - N/A   Mostly Cloudy
3:18 PM 60.8 °F 59.0 °F 94% 29.86 in 1.9 mi WSW 10.4 mph - N/A Rain Rain Showers
3:25 PM 60.8 °F 59.0 °F 94% 29.86 in 1.6 mi WSW 12.7 mph - N/A Rain Light Rain Showers
3:35 PM 59.0 °F 59.0 °F 100% 29.86 in 2.5 mi West 13.8 mph - N/A Rain Light Rain Showers
3:55 PM 60.8 °F 59.0 °F 94% 29.86 in 6.2 mi WNW 11.5 mph - N/A   Mostly Cloudy
4:04 PM 60.8 °F 57.2 °F 88% 29.89 in 6.2 mi WNW 13.8 mph - N/A   Mostly Cloudy
4:25 PM 60.8 °F 59.0 °F 94% 29.89 in 6.2 mi West 10.4 mph - N/A   Mostly Cloudy
4:55 PM 62.6 °F 57.2 °F 82% 29.89 in 6.2 mi West 12.7 mph - N/A   Mostly Cloudy
5:00 PM 62 °F 57 °F 80% 29.87 in 19 mi West 13.4 mph - -   Partly Cloudy
5:25 PM 64.4 °F 57.2 °F 77% 29.89 in 6.2 mi West 12.7 mph - N/A   Mostly Cloudy
5:55 PM 62.6 °F 55.4 °F 77% 29.89 in 6.2 mi WNW 11.5 mph - N/A   Mostly Cloudy
6:25 PM 62.6 °F 55.4 °F 77% 29.92 in 6.2 mi WNW 12.7 mph - N/A   Mostly Cloudy
6:55 PM 62.6 °F 53.6 °F 72% 29.92 in 6.2 mi WNW 9.2 mph - N/A   Mostly Cloudy
7:25 PM 60.8 °F 53.6 °F 77% 29.95 in 6.2 mi West 11.5 mph - N/A   Mostly Cloudy
7:55 PM 60.8 °F 53.6 °F 77% 29.95 in 6.2 mi WNW 9.2 mph - N/A   Mostly Cloudy
8:00 PM 61 °F 54 °F 71% 29.94 in 19 mi WNW 8.9 mph - -   Partly Cloudy
8:25 PM 59.0 °F 51.8 °F 77% 29.98 in 6.2 mi West 10.4 mph - N/A   Mostly Cloudy
8:55 PM 59.0 °F 51.8 °F 77% 29.98 in 6.2 mi West 6.9 mph - N/A   Mostly Cloudy
9:25 PM 59.0 °F 53.6 °F 82% 29.98 in 6.2 mi Variable 3.5 mph - N/A   Mostly Cloudy
9:55 PM 57.2 °F 53.6 °F 88% 30.01 in 6.2 mi Variable 3.5 mph - N/A   Mostly Cloudy
10:25 PM 57.2 °F 53.6 °F 88% 30.01 in 6.2 mi West 6.9 mph - N/A   Mostly Cloudy
10:55 PM 57.2 °F 53.6 °F 88% 30.04 in 6.2 mi West 6.9 mph - N/A   Mostly Cloudy
11:00 PM 57 °F 54 °F 85% 30.02 in 12 mi West 6.7 mph - -   Overcast
11:25 PM 55.4 °F 53.6 °F 94% 30.04 in 6.2 mi West 9.2 mph - N/A   Mostly Cloudy
11:43 PM 55.4 °F 53.6 °F 94% 30.04 in 6.2 mi West 9.2 mph - N/A   Mostly Cloudy
11:55 PM 55.4 °F 53.6 °F 94% 30.04 in 6.2 mi West 8.1 mph - N/A   Mostly Cloudy